Weather History for KTEB - May, 2013

Change the Weather History Date:

Thursday, May 2, 2013

  Actual Average Record
Temperature  
Mean Temperature 58 °F -  
Max Temperature 73 °F 67 °F 90 °F (2001)
Min Temperature 44 °F 46 °F 39 °F (2005)
Degree Days  
Heating Degree Days 8    
Growing Degree Days 8 (Base 50)    
Moisture  
Dew Point 41 °F    
Average Humidity 56    
Maximum Humidity 93    
Minimum Humidity 29    
Precipitation  
Precipitation 0.00 in - - ()
Sea Level Pressure  
Sea Level Pressure 30.39 in    
Wind  
Wind Speed 3 mph (SSE)    
Max Wind Speed 12 mph    
Max Gust Speed 21 mph    
Visibility 10 miles    
Events Fog    
Averages and records for this station are not official NWS values.
T = Trace of Precipitation, MM = Missing Value Source: NWS Daily Summary

Daily Weather History Graph

Daily Weather History Graph

Search for Another Location

Airport or City:

Trip Planner

Search our weather history database for the weather conditions in past years. The results will help you decide how hot, cold, wet, or windy it might be!

Date:

Astronomy

May. 02, 2013 Rise Set
Actual Time 5:53 AM EDT 7:53 PM EDT
Civil Twilight 5:23 AM EDT 8:23 PM EDT
Nautical Twilight 4:46 AM EDT 9:00 PM EDT
Astronomical Twilight 4:07 AM EDT 9:40 PM EDT
Moon 1:41 AM EDT (5/2) 12:37 PM EDT (5/2)
Length of Visible Light 15h 00m
Length of Day
14h 00m
Waning Gibbous, 48% of the Moon is Illuminated
May 2
Waning Gibbous
May 9
New
May 18
First Quarter
May 25
Full
May 31
Last Quarter

Hourly Weather History & Observations

Time (EDT) Temp. Windchill Dew Point Humidity Pressure Visibility Wind Dir Wind Speed Gust Speed Precip Events Conditions
12:51 AM 50.0 °F - 44.1 °F 80% 30.46 in 10.0 mi Calm Calm - N/A   Clear
1:51 AM 48.0 °F - 43.0 °F 83% 30.44 in 10.0 mi Calm Calm - N/A Fog Shallow Fog
2:51 AM 48.0 °F - 44.1 °F 86% 30.42 in 10.0 mi Calm Calm - N/A Fog Shallow Fog
3:51 AM 46.9 °F - 43.0 °F 86% 30.42 in 10.0 mi Calm Calm - N/A Fog Shallow Fog
4:51 AM 44.1 °F 42.5 °F 42.1 °F 93% 30.41 in 10.0 mi NNW 3.5 mph - N/A Fog Shallow Fog
5:51 AM 45.0 °F 43.5 °F 42.1 °F 90% 30.42 in 10.0 mi North 3.5 mph - N/A Fog Shallow Fog
6:51 AM 48.0 °F - 43.0 °F 83% 30.43 in 10.0 mi Calm Calm - N/A   Clear
7:51 AM 53.1 °F - 45.0 °F 74% 30.45 in 10.0 mi Calm Calm - N/A   Clear
8:51 AM 59.0 °F - 44.1 °F 58% 30.45 in 10.0 mi Calm Calm - N/A   Clear
9:51 AM 61.0 °F - 42.1 °F 50% 30.45 in 10.0 mi Calm Calm - N/A   Clear
10:51 AM 63.0 °F - 39.9 °F 43% 30.45 in 10.0 mi Variable 3.5 mph - N/A   Clear
11:51 AM 66.9 °F - 37.9 °F 34% 30.43 in 10.0 mi Variable 5.8 mph - N/A   Clear
12:51 PM 69.1 °F - 36.0 °F 30% 30.41 in 10.0 mi Variable 5.8 mph - N/A   Clear
1:51 PM 71.1 °F - 37.0 °F 29% 30.40 in 10.0 mi ENE 4.6 mph - N/A   Clear
2:51 PM 71.1 °F - 43.0 °F 36% 30.38 in 10.0 mi South 9.2 mph - N/A   Clear
3:51 PM 70.0 °F - 42.1 °F 36% 30.36 in 10.0 mi SE 8.1 mph 20.7 mph N/A   Clear
4:51 PM 71.1 °F - 42.1 °F 35% 30.34 in 10.0 mi South 9.2 mph - N/A   Clear
5:51 PM 68.0 °F - 42.1 °F 39% 30.34 in 10.0 mi South 10.4 mph - N/A   Clear
6:51 PM 64.0 °F - 41.0 °F 43% 30.32 in 10.0 mi SSW 11.5 mph - N/A   Clear
7:51 PM 61.0 °F - 37.9 °F 42% 30.32 in 10.0 mi South 6.9 mph - N/A   Clear
8:51 PM 60.1 °F - 39.0 °F 46% 30.32 in 10.0 mi South 4.6 mph - N/A   Clear
9:51 PM 60.1 °F - 39.0 °F 46% 30.33 in 10.0 mi Calm Calm - N/A   Clear
10:51 PM 59.0 °F - 39.9 °F 49% 30.34 in 10.0 mi Variable 4.6 mph - N/A   Clear
11:51 PM 57.9 °F - 39.0 °F 49% 30.36 in 10.0 mi East 5.8 mph - N/A   Partly Cloudy